TimeMDT,TemperatureF,Dew PointF,Humidity,Sea Level PressureIn,VisibilityMPH,Wind Direction,Wind SpeedMPH,Gust SpeedMPH,PrecipitationIn,Events,Conditions,WindDirDegrees,DateUTC
12:15 AM,44.6,26.6,49,30.20,10.0,West,9.2,-,N/A,,Clear,280,2013-10-23 06:15:00
12:35 AM,44.6,26.6,49,30.20,10.0,West,10.4,-,N/A,,Clear,280,2013-10-23 06:35:00
12:55 AM,44.6,26.6,49,30.20,10.0,West,9.2,-,N/A,,Clear,280,2013-10-23 06:55:00
1:15 AM,44.6,26.6,49,30.20,10.0,West,8.1,-,N/A,,Clear,270,2013-10-23 07:15:00
1:35 AM,44.6,26.6,49,30.20,10.0,West,8.1,-,N/A,,Clear,280,2013-10-23 07:35:00
1:55 AM,42.8,26.6,53,30.19,10.0,West,9.2,-,N/A,,Clear,280,2013-10-23 07:55:00
2:15 AM,42.8,26.6,53,30.19,10.0,West,8.1,-,N/A,,Clear,270,2013-10-23 08:15:00
2:35 AM,42.8,26.6,53,30.19,10.0,West,8.1,-,N/A,,Clear,270,2013-10-23 08:35:00
2:55 AM,42.8,26.6,53,30.18,10.0,West,10.4,-,N/A,,Clear,280,2013-10-23 08:55:00
3:15 AM,42.8,26.6,53,30.18,10.0,West,9.2,-,N/A,,Clear,280,2013-10-23 09:15:00
3:35 AM,42.8,26.6,53,30.18,10.0,West,9.2,-,N/A,,Clear,280,2013-10-23 09:35:00
3:55 AM,41.0,24.8,53,30.18,10.0,West,8.1,-,N/A,,Clear,280,2013-10-23 09:55:00
4:15 AM,42.8,26.6,53,30.18,10.0,West,9.2,-,N/A,,Clear,280,2013-10-23 10:15:00
4:35 AM,42.8,26.6,53,30.18,10.0,West,8.1,-,N/A,,Clear,270,2013-10-23 10:35:00
4:55 AM,41.0,24.8,53,30.18,10.0,West,6.9,-,N/A,,Clear,280,2013-10-23 10:55:00
5:15 AM,39.2,26.6,61,30.19,10.0,WNW,6.9,-,N/A,,Clear,290,2013-10-23 11:15:00
5:35 AM,39.2,26.6,61,30.19,10.0,West,6.9,-,N/A,,Clear,280,2013-10-23 11:35:00
5:55 AM,39.2,26.6,61,30.19,10.0,West,9.2,-,N/A,,Clear,280,2013-10-23 11:55:00
6:15 AM,39.2,26.6,61,30.19,10.0,WNW,6.9,-,N/A,,Clear,290,2013-10-23 12:15:00
6:35 AM,39.2,26.6,61,30.20,10.0,WNW,5.8,-,N/A,,Clear,300,2013-10-23 12:35:00
6:55 AM,39.2,26.6,61,30.21,10.0,NW,5.8,-,N/A,,Clear,310,2013-10-23 12:55:00
7:15 AM,39.2,26.6,61,30.21,10.0,WNW,5.8,-,N/A,,Clear,300,2013-10-23 13:15:00
7:35 AM,39.2,26.6,61,30.21,10.0,West,5.8,-,N/A,,Clear,280,2013-10-23 13:35:00
7:55 AM,42.8,28.4,57,30.21,10.0,West,6.9,-,N/A,,Clear,280,2013-10-23 13:55:00
8:15 AM,46.4,30.2,53,30.22,10.0,West,8.1,-,N/A,,Clear,280,2013-10-23 14:15:00
8:35 AM,51.8,32.0,47,30.23,10.0,West,10.4,-,N/A,,Clear,260,2013-10-23 14:35:00
8:55 AM,55.4,33.8,44,30.23,10.0,West,12.7,-,N/A,,Clear,260,2013-10-23 14:55:00
9:15 AM,59.0,32.0,36,30.23,10.0,WSW,13.8,-,N/A,,Clear,250,2013-10-23 15:15:00
9:35 AM,60.8,33.8,36,30.23,10.0,WSW,15.0,-,N/A,,Clear,250,2013-10-23 15:35:00
9:55 AM,62.6,33.8,34,30.23,10.0,WSW,13.8,-,N/A,,Clear,240,2013-10-23 15:55:00
10:15 AM,64.4,33.8,32,30.23,10.0,SW,15.0,-,N/A,,Clear,230,2013-10-23 16:15:00
10:35 AM,64.4,33.8,32,30.22,10.0,SW,15.0,18.4,N/A,,Clear,230,2013-10-23 16:35:00
10:55 AM,66.2,35.6,32,30.22,10.0,WSW,15.0,-,N/A,,Clear,240,2013-10-23 16:55:00
11:15 AM,69.8,33.8,27,30.22,10.0,SW,13.8,23.0,N/A,,Clear,230,2013-10-23 17:15:00
11:35 AM,69.8,32.0,25,30.21,10.0,SW,19.6,23.0,N/A,,Clear,230,2013-10-23 17:35:00
11:55 AM,71.6,28.4,20,30.20,10.0,SW,17.3,26.5,N/A,,Clear,230,2013-10-23 17:55:00
12:15 PM,73.4,26.6,18,30.19,10.0,SW,19.6,28.8,N/A,,Clear,230,2013-10-23 18:15:00
12:35 PM,73.4,26.6,18,30.19,10.0,SW,16.1,21.9,N/A,,Clear,220,2013-10-23 18:35:00
12:55 PM,73.4,24.8,16,30.17,10.0,WSW,18.4,24.2,N/A,,Clear,240,2013-10-23 18:55:00
1:15 PM,75.2,24.8,15,30.16,10.0,SW,16.1,20.7,N/A,,Clear,230,2013-10-23 19:15:00
1:35 PM,75.2,24.8,15,30.15,10.0,SW,18.4,-,N/A,,Clear,230,2013-10-23 19:35:00
1:55 PM,75.2,24.8,15,30.14,10.0,SW,17.3,23.0,N/A,,Clear,230,2013-10-23 19:55:00
2:15 PM,75.2,24.8,15,30.13,10.0,SW,15.0,23.0,N/A,,Clear,230,2013-10-23 20:15:00
2:35 PM,75.2,23.0,14,30.13,10.0,SW,15.0,-,N/A,,Clear,230,2013-10-23 20:35:00
2:55 PM,75.2,23.0,14,30.13,10.0,SW,15.0,19.6,N/A,,Clear,230,2013-10-23 20:55:00
3:15 PM,75.2,21.2,13,30.12,10.0,WSW,15.0,19.6,N/A,,Clear,250,2013-10-23 21:15:00
3:35 PM,75.2,21.2,13,30.12,10.0,SW,15.0,-,N/A,,Clear,230,2013-10-23 21:35:00
3:55 PM,75.2,21.2,13,30.12,10.0,SW,11.5,-,N/A,,Clear,220,2013-10-23 21:55:00
4:15 PM,75.2,21.2,13,30.12,10.0,SW,12.7,-,N/A,,Clear,220,2013-10-23 22:15:00
4:35 PM,75.2,21.2,13,30.12,10.0,SW,12.7,17.3,N/A,,Clear,220,2013-10-23 22:35:00
4:55 PM,73.4,21.2,14,30.12,10.0,SW,12.7,-,N/A,,Clear,220,2013-10-23 22:55:00
5:15 PM,73.4,21.2,14,30.12,10.0,SW,10.4,-,N/A,,Clear,220,2013-10-23 23:15:00
5:35 PM,71.6,23.0,16,30.12,10.0,SW,8.1,-,N/A,,Clear,220,2013-10-23 23:35:00
5:55 PM,66.2,21.2,18,30.12,7.0,SW,6.9,-,N/A,,Clear,220,2013-10-23 23:55:00
6:15 PM,64.4,23.0,21,30.12,10.0,SW,8.1,-,N/A,,Clear,220,2013-10-24 00:15:00
6:35 PM,60.8,23.0,23,30.13,10.0,SW,5.8,-,N/A,,Clear,220,2013-10-24 00:35:00
6:55 PM,60.8,21.2,22,30.13,10.0,SW,5.8,-,N/A,,Clear,220,2013-10-24 00:55:00
7:15 PM,60.8,21.2,22,30.14,10.0,WSW,3.5,-,N/A,,Clear,240,2013-10-24 01:15:00
7:35 PM,57.2,21.2,25,30.15,10.0,SW,4.6,-,N/A,,Clear,230,2013-10-24 01:35:00
7:55 PM,57.2,23.0,27,30.15,10.0,WSW,4.6,-,N/A,,Clear,240,2013-10-24 01:55:00
8:15 PM,55.4,21.2,26,30.16,10.0,WSW,4.6,-,N/A,,Clear,250,2013-10-24 02:15:00
8:35 PM,55.4,26.6,33,30.16,10.0,West,3.5,-,N/A,,Clear,260,2013-10-24 02:35:00
8:55 PM,53.6,24.8,33,30.17,10.0,WSW,4.6,-,N/A,,Clear,250,2013-10-24 02:55:00
9:15 PM,51.8,21.2,30,30.17,10.0,WSW,4.6,-,N/A,,Clear,240,2013-10-24 03:15:00
9:35 PM,48.2,21.2,34,30.17,10.0,South,5.8,-,N/A,,Clear,170,2013-10-24 03:35:00
9:55 PM,50.0,21.2,32,30.18,10.0,Calm,Calm,-,N/A,,Clear,0,2013-10-24 03:55:00
10:15 PM,48.2,19.4,32,30.18,10.0,SW,3.5,-,N/A,,Clear,230,2013-10-24 04:15:00
10:35 PM,46.4,19.4,34,30.19,10.0,SW,3.5,-,N/A,,Clear,230,2013-10-24 04:35:00
10:55 PM,48.2,21.2,34,30.19,10.0,SW,5.8,-,N/A,,Clear,230,2013-10-24 04:55:00
11:15 PM,48.2,19.4,32,30.19,10.0,SSW,3.5,-,N/A,,Clear,210,2013-10-24 05:15:00
11:35 PM,48.2,19.4,32,30.19,10.0,WSW,3.5,-,N/A,,Clear,240,2013-10-24 05:35:00
11:55 PM,48.2,19.4,32,30.19,10.0,WSW,3.5,-,N/A,,Clear,250,2013-10-24 05:55:00